SKW5611 KRAP-KDEN

Flight info

Callsign SKW5611
Flight time 0h 58m
Altitude 3000
Route NYTRO AALLE4
Aircraft B738/M-SDE2E3FGHIRWXY/LB1

Departure

Time 2026-05-06 11:18
Airport Rapid City Regional Airport (KRAP)

Arrival

Time 2026-05-06 12:16
Airport Denver International Airport (KDEN)
Time Latitude Longitude Altitude Speed Heading
2026-05-06 11:00 44.03927 -103.05943 3161 ft 0 kts 297°
2026-05-06 11:11 44.03924 -103.05936 3161 ft 2 kts 297°
2026-05-06 11:11 44.03916 -103.05919 3161 ft 2 kts 330°
2026-05-06 11:12 44.03901 -103.05914 3161 ft 2 kts 12°
2026-05-06 11:12 44.03895 -103.05917 3161 ft 1 kts 33°
2026-05-06 11:12 44.03891 -103.05921 3161 ft 0 kts 27°
2026-05-06 11:14 44.03903 -103.05909 3161 ft 5 kts 42°
2026-05-06 11:14 44.03939 -103.05868 3163 ft 7 kts 33°
2026-05-06 11:14 44.03981 -103.05820 3164 ft 9 kts 51°
2026-05-06 11:14 44.04015 -103.05720 3162 ft 13 kts 84°
2026-05-06 11:15 44.03938 -103.05623 3158 ft 19 kts 151°
2026-05-06 11:15 44.03801 -103.05521 3151 ft 25 kts 152°
2026-05-06 11:15 44.03624 -103.05391 3142 ft 32 kts 152°
2026-05-06 11:15 44.03413 -103.05235 3128 ft 35 kts 152°
2026-05-06 11:16 44.03256 -103.05099 3117 ft 15 kts 117°
2026-05-06 11:16 44.03268 -103.05006 3116 ft 9 kts 64°
2026-05-06 11:16 44.03285 -103.04967 3115 ft 1 kts 34°
2026-05-06 11:16 44.03303 -103.04969 3116 ft 0 kts 338°
2026-05-06 11:17 44.03313 -103.04975 3117 ft 7 kts 338°
2026-05-06 11:17 44.03550 -103.05145 3129 ft 73 kts 331°
2026-05-06 11:17 44.04193 -103.05619 3160 ft 136 kts 332°
2026-05-06 11:18 44.05167 -103.06332 3471 ft 170 kts 331°
2026-05-06 11:18 44.06267 -103.07138 4048 ft 197 kts 330°
2026-05-06 11:18 44.07562 -103.08093 4461 ft 220 kts 330°
2026-05-06 11:18 44.08763 -103.09392 4843 ft 219 kts 308°
2026-05-06 11:19 44.09414 -103.11277 5153 ft 219 kts 283°
2026-05-06 11:19 44.09381 -103.13392 5567 ft 221 kts 258°
2026-05-06 11:19 44.08656 -103.15324 6051 ft 234 kts 233°
2026-05-06 11:19 44.07361 -103.16731 6512 ft 245 kts 210°
2026-05-06 11:20 44.05698 -103.17379 6982 ft 254 kts 189°
2026-05-06 11:20 44.03931 -103.17187 7450 ft 261 kts 174°
2026-05-06 11:20 44.02123 -103.16799 7908 ft 264 kts 179°
2026-05-06 11:20 44.00260 -103.16734 8418 ft 278 kts 185°
2026-05-06 11:21 43.98282 -103.16721 9026 ft 293 kts 185°
2026-05-06 11:21 43.96245 -103.16708 9532 ft 298 kts 185°
2026-05-06 11:21 43.94168 -103.16695 10006 ft 300 kts 185°
2026-05-06 11:21 43.92083 -103.16683 10454 ft 304 kts 185°
2026-05-06 11:22 43.89967 -103.16672 10911 ft 308 kts 185°
2026-05-06 11:22 43.87801 -103.16660 11358 ft 312 kts 185°
2026-05-06 11:22 43.85636 -103.16648 11800 ft 316 kts 186°
2026-05-06 11:22 43.83395 -103.16639 12282 ft 332 kts 185°
2026-05-06 11:23 43.81017 -103.16627 12900 ft 351 kts 185°
2026-05-06 11:23 43.78557 -103.16613 13518 ft 368 kts 185°
2026-05-06 11:23 43.75957 -103.16596 14083 ft 373 kts 185°
2026-05-06 11:23 43.73384 -103.16579 14573 ft 376 kts 185°
2026-05-06 11:24 43.70772 -103.16566 15055 ft 378 kts 185°
2026-05-06 11:24 43.68145 -103.16551 15532 ft 381 kts 185°
2026-05-06 11:24 43.65496 -103.16536 16011 ft 385 kts 185°
2026-05-06 11:24 43.62819 -103.16522 16494 ft 388 kts 185°
2026-05-06 11:25 43.60110 -103.16506 16978 ft 392 kts 185°
2026-05-06 11:25 43.57381 -103.16491 17463 ft 395 kts 185°
2026-05-06 11:25 43.54617 -103.16476 17952 ft 399 kts 185°
2026-05-06 11:25 43.51864 -103.16460 18438 ft 402 kts 185°
2026-05-06 11:26 43.49034 -103.16446 18933 ft 406 kts 185°
2026-05-06 11:26 43.46240 -103.16430 19417 ft 409 kts 185°
2026-05-06 11:26 43.43366 -103.16415 19915 ft 413 kts 185°
2026-05-06 11:26 43.40501 -103.16398 20408 ft 415 kts 185°
2026-05-06 11:27 43.37594 -103.16384 20905 ft 420 kts 185°
2026-05-06 11:27 43.34685 -103.16367 21398 ft 423 kts 185°
2026-05-06 11:27 43.31757 -103.16350 21891 ft 427 kts 185°
2026-05-06 11:27 43.28795 -103.16335 22385 ft 431 kts 185°
2026-05-06 11:28 43.25793 -103.16318 22883 ft 435 kts 185°
2026-05-06 11:28 43.22753 -103.16301 23382 ft 439 kts 185°
2026-05-06 11:28 43.19694 -103.16283 23883 ft 442 kts 185°
2026-05-06 11:28 43.16632 -103.16267 24382 ft 446 kts 185°
2026-05-06 11:29 43.13535 -103.16249 24886 ft 451 kts 185°
2026-05-06 11:29 43.10370 -103.16233 25400 ft 454 kts 185°
2026-05-06 11:29 43.07212 -103.16216 25907 ft 458 kts 184°
2026-05-06 11:29 43.04047 -103.16200 26413 ft 463 kts 184°
2026-05-06 11:30 43.00817 -103.16180 26926 ft 466 kts 184°
2026-05-06 11:30 42.97590 -103.16164 27435 ft 468 kts 184°
2026-05-06 11:30 42.94300 -103.16146 27946 ft 471 kts 184°
2026-05-06 11:30 42.91073 -103.16128 28450 ft 473 kts 184°
2026-05-06 11:31 42.87765 -103.16111 28955 ft 476 kts 184°
2026-05-06 11:31 42.84458 -103.16092 29446 ft 479 kts 184°
2026-05-06 11:31 42.81113 -103.16074 29934 ft 482 kts 184°
2026-05-06 11:31 42.77779 -103.16057 30187 ft 490 kts 184°
2026-05-06 11:32 42.74378 -103.16037 30172 ft 491 kts 184°
2026-05-06 11:32 42.67594 -103.15999 30148 ft 486 kts 184°
2026-05-06 11:33 42.60859 -103.15963 30152 ft 487 kts 184°
2026-05-06 11:33 42.54087 -103.15926 30151 ft 487 kts 184°
2026-05-06 11:34 42.47335 -103.15894 30156 ft 491 kts 184°
2026-05-06 11:34 42.43892 -103.15872 30208 ft 503 kts 184°
2026-05-06 11:34 42.40381 -103.15855 30207 ft 505 kts 184°
2026-05-06 11:35 42.33379 -103.15816 30139 ft 501 kts 184°
2026-05-06 11:35 42.26455 -103.15778 30132 ft 501 kts 184°
2026-05-06 11:36 42.19453 -103.15744 30127 ft 503 kts 184°
2026-05-06 11:36 42.12514 -103.15704 30124 ft 502 kts 184°
2026-05-06 11:37 42.05533 -103.15668 30125 ft 502 kts 184°
2026-05-06 11:37 41.98600 -103.15632 30136 ft 502 kts 184°
2026-05-06 11:38 41.91605 -103.15597 30146 ft 503 kts 184°
2026-05-06 11:38 41.84645 -103.15559 30134 ft 503 kts 184°
2026-05-06 11:39 41.77664 -103.15522 30133 ft 502 kts 184°
2026-05-06 11:39 41.70722 -103.15485 30133 ft 502 kts 184°
2026-05-06 11:40 41.63755 -103.15450 30137 ft 503 kts 184°
2026-05-06 11:40 41.56756 -103.15456 30132 ft 501 kts 186°
2026-05-06 11:41 41.49825 -103.15709 30123 ft 502 kts 186°
2026-05-06 11:41 41.42878 -103.15968 30113 ft 502 kts 186°
2026-05-06 11:42 41.35895 -103.16227 30108 ft 502 kts 186°
2026-05-06 11:42 41.28952 -103.16482 30111 ft 501 kts 186°
2026-05-06 11:43 41.22013 -103.16744 30113 ft 502 kts 186°
2026-05-06 11:43 41.15051 -103.16999 30113 ft 501 kts 186°
2026-05-06 11:44 41.04759 -103.17954 30122 ft 486 kts 194°
2026-05-06 11:44 41.01571 -103.19198 30104 ft 470 kts 208°
2026-05-06 11:44 40.98792 -103.21226 30106 ft 459 kts 220°
2026-05-06 11:45 40.96411 -103.24007 30127 ft 450 kts 231°
2026-05-06 11:45 40.94119 -103.26841 30066 ft 456 kts 225°
2026-05-06 11:45 40.91674 -103.29439 29805 ft 458 kts 223°
2026-05-06 11:45 40.89150 -103.32005 29446 ft 450 kts 222°
2026-05-06 11:46 40.86686 -103.34481 29026 ft 440 kts 222°
2026-05-06 11:46 40.84273 -103.36900 28622 ft 431 kts 222°
2026-05-06 11:46 40.81921 -103.39256 28226 ft 425 kts 222°
2026-05-06 11:46 40.79591 -103.41583 27844 ft 422 kts 222°
2026-05-06 11:47 40.77244 -103.43926 27467 ft 423 kts 222°
2026-05-06 11:47 40.74901 -103.46259 27090 ft 423 kts 222°
2026-05-06 11:47 40.72562 -103.48586 26711 ft 421 kts 222°
2026-05-06 11:47 40.70240 -103.50897 26325 ft 418 kts 222°
2026-05-06 11:48 40.67952 -103.53168 25943 ft 415 kts 222°
2026-05-06 11:48 40.65670 -103.55432 25561 ft 412 kts 222°
2026-05-06 11:48 40.63387 -103.57702 25176 ft 410 kts 222°
2026-05-06 11:48 40.61124 -103.59964 24793 ft 407 kts 222°
2026-05-06 11:49 40.58892 -103.62196 24413 ft 405 kts 222°
2026-05-06 11:49 40.56659 -103.64426 24032 ft 403 kts 222°
2026-05-06 11:49 40.54427 -103.66653 23651 ft 401 kts 221°
2026-05-06 11:49 40.52235 -103.68839 23281 ft 399 kts 221°
2026-05-06 11:50 40.50034 -103.71031 22905 ft 396 kts 221°
2026-05-06 11:50 40.47830 -103.73226 22527 ft 394 kts 221°
2026-05-06 11:50 40.45829 -103.75592 22065 ft 383 kts 234°
2026-05-06 11:50 40.44276 -103.78343 21648 ft 373 kts 240°
2026-05-06 11:51 40.42898 -103.81145 21202 ft 359 kts 243°
2026-05-06 11:51 40.41620 -103.83862 20691 ft 347 kts 243°
2026-05-06 11:51 40.40383 -103.86531 20199 ft 336 kts 244°
2026-05-06 11:51 40.39205 -103.89085 19734 ft 327 kts 244°
2026-05-06 11:52 40.38045 -103.91605 19366 ft 320 kts 244°
2026-05-06 11:52 40.36900 -103.94096 19010 ft 322 kts 244°
2026-05-06 11:52 40.35743 -103.96611 18647 ft 323 kts 244°
2026-05-06 11:52 40.34576 -103.99144 18278 ft 322 kts 244°
2026-05-06 11:53 40.33432 -104.01625 17910 ft 320 kts 244°
2026-05-06 11:53 40.32270 -104.04125 17528 ft 319 kts 242°
2026-05-06 11:53 40.30803 -104.06277 17136 ft 323 kts 227°
2026-05-06 11:53 40.29130 -104.08211 16784 ft 322 kts 225°
2026-05-06 11:54 40.27412 -104.10109 16409 ft 321 kts 224°
2026-05-06 11:54 40.25700 -104.11967 16035 ft 320 kts 224°
2026-05-06 11:54 40.23990 -104.13808 15662 ft 318 kts 224°
2026-05-06 11:54 40.22290 -104.15630 15287 ft 316 kts 224°
2026-05-06 11:55 40.20614 -104.17423 15141 ft 309 kts 224°
2026-05-06 11:55 40.18930 -104.19224 15128 ft 312 kts 224°
2026-05-06 11:55 40.17244 -104.21026 15137 ft 315 kts 224°
2026-05-06 11:55 40.15564 -104.22821 15144 ft 315 kts 224°
2026-05-06 11:56 40.14007 -104.24853 14894 ft 315 kts 234°
2026-05-06 11:56 40.12604 -104.27011 14521 ft 312 kts 235°
2026-05-06 11:56 40.11225 -104.29160 14139 ft 307 kts 235°
2026-05-06 11:56 40.09864 -104.31280 13749 ft 301 kts 235°
2026-05-06 11:57 40.08533 -104.33352 13365 ft 295 kts 235°
2026-05-06 11:57 40.07246 -104.35353 13141 ft 288 kts 235°
2026-05-06 11:57 40.05951 -104.37368 13131 ft 289 kts 235°
2026-05-06 11:57 40.04644 -104.39401 13129 ft 294 kts 235°
2026-05-06 11:58 40.03324 -104.41449 13123 ft 296 kts 235°
2026-05-06 11:58 40.02008 -104.43490 13117 ft 295 kts 235°
2026-05-06 11:58 40.00702 -104.45534 13111 ft 294 kts 238°
2026-05-06 11:58 39.99644 -104.47810 13121 ft 289 kts 247°
2026-05-06 11:59 39.98742 -104.50133 13107 ft 289 kts 249°
2026-05-06 11:59 39.97846 -104.52490 13113 ft 289 kts 249°
2026-05-06 11:59 39.96963 -104.54817 13110 ft 289 kts 249°
2026-05-06 11:59 39.96069 -104.57175 13111 ft 289 kts 249°
2026-05-06 12:00 39.95178 -104.59520 13111 ft 289 kts 249°
2026-05-06 12:00 39.94289 -104.61858 13111 ft 289 kts 249°
2026-05-06 12:00 39.93396 -104.64208 13111 ft 289 kts 249°
2026-05-06 12:00 39.92505 -104.66557 13113 ft 289 kts 248°
2026-05-06 12:01 39.91616 -104.68903 13112 ft 289 kts 248°
2026-05-06 12:01 39.90718 -104.71273 13112 ft 289 kts 248°
2026-05-06 12:01 39.89830 -104.73615 13110 ft 289 kts 248°
2026-05-06 12:01 39.88940 -104.75960 13104 ft 289 kts 248°
2026-05-06 12:02 39.87786 -104.78122 13081 ft 297 kts 229°
2026-05-06 12:02 39.86108 -104.79719 13118 ft 303 kts 215°
2026-05-06 12:02 39.84180 -104.80828 13070 ft 310 kts 197°
2026-05-06 12:02 39.82021 -104.81065 13098 ft 315 kts 178°
2026-05-06 12:03 39.79828 -104.80903 12783 ft 320 kts 182°
2026-05-06 12:03 39.77609 -104.80938 12350 ft 315 kts 183°
2026-05-06 12:03 39.75480 -104.80990 11985 ft 304 kts 184°
2026-05-06 12:03 39.73407 -104.81044 11568 ft 296 kts 183°
2026-05-06 12:04 39.71366 -104.81100 11122 ft 289 kts 183°
2026-05-06 12:04 39.69402 -104.81155 10721 ft 280 kts 182°
2026-05-06 12:04 39.67482 -104.81207 10303 ft 268 kts 182°
2026-05-06 12:04 39.65691 -104.81255 10076 ft 249 kts 182°
2026-05-06 12:05 39.63985 -104.81299 10059 ft 244 kts 182°
2026-05-06 12:05 39.62291 -104.81343 9986 ft 249 kts 182°
2026-05-06 12:05 39.60543 -104.81389 9988 ft 251 kts 182°
2026-05-06 12:05 39.58804 -104.81435 9983 ft 251 kts 182°
2026-05-06 12:06 39.57062 -104.81482 9981 ft 251 kts 182°
2026-05-06 12:06 39.55319 -104.81528 9981 ft 251 kts 182°
2026-05-06 12:06 39.53577 -104.81574 9981 ft 251 kts 182°
2026-05-06 12:06 39.51825 -104.81619 9983 ft 251 kts 181°
2026-05-06 12:07 39.50127 -104.81177 10000 ft 250 kts 156°
2026-05-06 12:07 39.48703 -104.79896 9978 ft 249 kts 131°
2026-05-06 12:07 39.47811 -104.78039 9988 ft 243 kts 107°
2026-05-06 12:07 39.47574 -104.75900 9983 ft 236 kts 82°
2026-05-06 12:08 39.48019 -104.73910 9984 ft 229 kts 58°
2026-05-06 12:08 39.49030 -104.72401 9983 ft 223 kts 33°
2026-05-06 12:08 39.50340 -104.71322 10017 ft 222 kts 27°
2026-05-06 12:08 39.51663 -104.70314 10004 ft 222 kts 28°
2026-05-06 12:09 39.52774 -104.68922 9982 ft 225 kts 47°
2026-05-06 12:09 39.53962 -104.67684 9971 ft 220 kts 22°
2026-05-06 12:09 39.55446 -104.67277 9982 ft 213 kts 358°
2026-05-06 12:09 39.56894 -104.67455 10005 ft 211 kts 353°
2026-05-06 12:10 39.58322 -104.67836 10005 ft 211 kts 347°
2026-05-06 12:10 39.59771 -104.68261 9999 ft 211 kts 347°
2026-05-06 12:10 39.61210 -104.68572 9999 ft 211 kts 352°
2026-05-06 12:10 39.62680 -104.68756 10000 ft 212 kts 355°
2026-05-06 12:11 39.64138 -104.68857 9823 ft 210 kts 356°
2026-05-06 12:11 39.65567 -104.68906 9539 ft 203 kts 358°
2026-05-06 12:11 39.66964 -104.68926 9266 ft 197 kts 359°
2026-05-06 12:11 39.68312 -104.68928 8980 ft 190 kts 359°
2026-05-06 12:12 39.69596 -104.68922 8700 ft 185 kts 360°
2026-05-06 12:12 39.70867 -104.68911 8435 ft 180 kts
2026-05-06 12:12 39.72099 -104.68898 8186 ft 176 kts
2026-05-06 12:12 39.73307 -104.68884 7947 ft 173 kts
2026-05-06 12:13 39.74497 -104.68870 7714 ft 169 kts
2026-05-06 12:13 39.75660 -104.68856 7477 ft 165 kts
2026-05-06 12:13 39.76795 -104.68842 7274 ft 162 kts
2026-05-06 12:13 39.77920 -104.68827 7072 ft 161 kts
2026-05-06 12:14 39.79032 -104.68813 6869 ft 160 kts
2026-05-06 12:14 39.80154 -104.68799 6664 ft 160 kts
2026-05-06 12:14 39.81251 -104.68785 6464 ft 160 kts
2026-05-06 12:14 39.82362 -104.68771 6258 ft 160 kts
2026-05-06 12:15 39.83470 -104.68758 6052 ft 158 kts
2026-05-06 12:15 39.84560 -104.68744 5844 ft 157 kts
2026-05-06 12:15 39.85646 -104.68730 5633 ft 154 kts
2026-05-06 12:15 39.86706 -104.68713 5448 ft 146 kts
2026-05-06 12:16 39.87580 -104.68707 5442 ft 88 kts
2026-05-06 12:16 39.87877 -104.68700 5442 ft 26 kts 360°
2026-05-06 12:16 39.88072 -104.68698 5442 ft 30 kts 360°
2026-05-06 12:16 39.88292 -104.68697 5442 ft 33 kts
2026-05-06 12:17 39.88507 -104.68635 5442 ft 27 kts 24°
2026-05-06 12:17 39.88592 -104.68504 5442 ft 15 kts 133°
2026-05-06 12:17 39.88482 -104.68482 5442 ft 18 kts 180°
2026-05-06 12:17 39.88338 -104.68484 5442 ft 23 kts 179°
2026-05-06 12:18 39.88161 -104.68485 5442 ft 27 kts 180°
2026-05-06 12:18 39.87954 -104.68488 5442 ft 32 kts 180°
2026-05-06 12:18 39.87717 -104.68491 5442 ft 36 kts 180°
2026-05-06 12:18 39.87462 -104.68493 5442 ft 38 kts 180°
2026-05-06 12:19 39.87185 -104.68497 5442 ft 40 kts 180°
2026-05-06 12:19 39.86900 -104.68501 5442 ft 42 kts 181°
2026-05-06 12:19 39.86597 -104.68504 5442 ft 44 kts 180°
2026-05-06 12:19 39.86294 -104.68508 5442 ft 43 kts 180°
2026-05-06 12:20 39.85997 -104.68510 5442 ft 42 kts 180°
2026-05-06 12:20 39.85713 -104.68512 5442 ft 39 kts 180°
2026-05-06 12:20 39.85462 -104.68514 5442 ft 33 kts 180°
2026-05-06 12:20 39.85306 -104.68489 5442 ft 1 kts 126°
2026-05-06 12:21 39.85303 -104.68452 5442 ft 12 kts 88°
2026-05-06 12:21 39.85300 -104.68264 5442 ft 26 kts 101°
2026-05-06 12:21 39.85266 -104.67988 5442 ft 35 kts 91°
2026-05-06 12:21 39.85262 -104.67681 5442 ft 28 kts 88°
2026-05-06 12:22 39.85281 -104.67610 5442 ft 2 kts 351°
2026-05-06 12:22 39.85326 -104.67612 5442 ft 8 kts
2026-05-06 12:22 39.85331 -104.67612 5442 ft 0 kts 359°